Flag for Germany Weather past 2 weeks in Hofheim am Taunus, Hesse, Germany

Now
69 °F

Scattered clouds.


Feels Like: 69 °F
Forecast: 54 / 70 °F
Wind: No wind

Location: Wiesbaden Airport

Current Time: Aug 27, 2014 at 5:51:23 PM

Latest Report: Aug 27, 2014 at 4:58 PM


Visibility: N/A

Pressure: 30.03 "Hg

Humidity: 53%

Dew point: 52 °F

Location of Hofheim am TaunusLocation

Historic Weather in Hofheim am Taunus — Graph

°F

Hofheim am Taunus temperature yesterday

Maximum temperature yesterday: 68 °F (at 4:58 PM)
Minimum temperature yesterday: 54 °F (at 1:58 AM)
Average temperature yesterday: 59 °F

Past Weeks' High & Low Weather Summary

 TemperatureHumidityPressure
High73 °F (Aug 12, 5:58 PM)100% (Aug 13, 6:04 PM)30.14 "Hg (Aug 13, 6:04 PM)
Low45 °F (Aug 22, 6:58 AM)41% (Aug 12, 6:58 PM)29.66 "Hg (Aug 13, 3:58 PM)
Average59 °F78%29.93 "Hg
* Reported Aug 12 3:58 PM — Aug 27 3:58 PM, Hofheim am Taunus, Weather by CustomWeather, © 2014

Note: Actual official high and low records may vary slightly from our data, if they occured in-between our weather recording intervals... More about our weather records

Advertising

Hofheim am Taunus weather history for previous 24 hours

 ConditionsComfort  
Time TempWeatherWind HumidityBarometerVisibility
3:58 PM
Aug 27
68 °FPassing clouds.6 mph56%30.03 "HgN/A
2:58 PM67 °FPassing clouds.5 mph58%30.03 "HgN/A
1:58 PM67 °FPassing clouds.3 mph62%30.03 "HgN/A
12:58 PM64 °FPassing clouds.3 mph68%30.03 "HgN/A
11:58 AM64 °FPartly sunny.8 mph72%30.03 "HgN/A
10:58 AM61 °FPassing clouds.6 mph77%30.01 "HgN/A
9:58 AM61 °FMostly cloudy.7 mph80%29.99 "HgN/A
8:58 AM57 °FOvercast.2 mph89%29.97 "HgN/A
7:58 AM55 °FOvercast.No wind94%29.94 "HgN/A
6:58 AM55 °FOvercast.3 mph96%29.92 "HgN/A
5:58 AM55 °FOvercast.5 mph97%29.89 "HgN/A
4:58 AM55 °FPartly cloudy.3 mph100%29.86 "HgN/A
3:58 AM57 °FLight rain. Overcast.5 mph94%29.83 "HgN/A
2:58 AM57 °FRain. Overcast.6 mph94%29.82 "HgN/A
1:58 AM57 °FRain. Overcast.5 mph100%29.80 "HgN/A
12:58 AM57 °FLight rain. Overcast.3 mph100%29.79 "HgN/A
11:58 PM
Aug 26
57 °FLight rain. Overcast.6 mph100%29.78 "HgN/A
11:03 PM57 °FHeavy rain. Fog.8 mph100%29.77 "Hg2 mi
10:58 PM59 °FHeavy rain. Fog.7 mph94%29.77 "Hg3 mi
9:58 PM59 °FMostly cloudy.6 mph100%29.75 "HgN/A
9:03 PM59 °FHeavy rain. Fog.5 mph94%29.74 "Hg2 mi
8:59 PM59 °FRain. Fog.6 mph94%29.74 "Hg3 mi
7:58 PM59 °FMostly cloudy.8 mph94%29.72 "HgN/A
7:01 PM61 °FLight rain. Mostly cloudy.8 mph94%29.71 "HgN/A
6:58 PM61 °FMostly cloudy.10 mph90%29.71 "HgN/A
6:02 PM63 °FPartly sunny.9 mph88%29.71 "HgN/A
5:58 PM63 °FMostly cloudy.7 mph88%29.71 "HgN/A
Weather by CustomWeather, © 2014

See weather overviewHow to use our weather pages